Vertical_Velocity
1 2 3 2 1 -1 0 0 -1 1 1 1 -1 -1 -2 -0 -1 -1 -0 0 0 -2 -2 -5 -3 -3 -0 -3 -3 2 1 2 2 2 1 1 -0 -1 2 0 -4 -1 4 -1 3
-1 1 -1 2 1 2 0 0 -0 1 1 2 0 -1 -1 -1 -2 1 -1 -2 -1 -3 -4 -4 -0 -4 -1 -1 -2 2 0 0 0 1 3 0 3 4 -1 3 -1 2 3 -1 0
-0 0 -1 -2 0 0 0 1 1 1 -1 1 -0 -1 -1 -4 -0 -1 1 -1 -2 -4 -0 -4 -1 -2 -1 -2 1 -3 -0 2 -3 -2 1 -3 2 -2 -4 5 4 3 2 2 1
1 -0 -1 -1 -3 2 -1 -1 0 -0 0 0 1 -1 -1 -4 -2 1 1 -1 -1 -3 -2 -3 -0 -0 -4 -4 -4 1 0 -3 -4 -2 0 -1 0 -0 -4 -2 0 -4 2 2 -1
-1 1 0 1 -0 -2 0 -2 1 2 -2 1 -2 1 -1 -4 -2 1 2 -2 -1 -1 -1 -5 -1 2 -6 -4 -0 -0 -1 -4 -1 -0 -1 -0 -1 -1 -4 0 -1 -7 -1 1 -0
0 -1 0 -3 1 -0 0 -3 -6 1 2 -1 1 2 -1 -1 -2 0 3 1 -3 -2 -3 -2 -2 -0 -6 -2 1 0 -0 -2 -1 -3 -1 1 -0 -1 1 -0 -0 -4 -5 -2 4
3 -0 -2 -2 2 -0 -2 3 -3 3 1 1 -0 0 -0 -1 -0 -1 3 1 -3 -2 -4 -1 -1 -2 -3 -2 -1 -1 3 -1 4 6 1 -3 1 -1 -3 2 2 3 -1 0 3
1 2 0 -1 -3 0 -1 -1 -2 1 -0 2 2 0 -1 0 -1 -1 2 1 -0 -2 -3 -2 1 -2 -2 -2 2 0 5 -3 13 4 7 4 -3 -5 4 -5 -2 -4 -10 1 3
1 2 -0 0 1 -1 1 1 -0 0 1 -1 1 2 -3 -1 -1 -1 -0 -1 -0 -1 -3 -2 1 -2 -3 -4 1 1 -1 0 -2 3 3 1 1 2 0 2 5 3 4 -0 3
-0 -2 1 1 -1 -1 0 3 1 -1 1 4 -0 -3 2 1 -0 -2 0 -1 0 -1 -3 -3 -0 -2 -3 -4 -2 2 -1 -1 1 1 3 2 2 -3 -0 -1 2 1 2 1 0
-0 -2 -2 -1 1 -2 0 4 -1 -4 1 0 1 -3 3 1 -2 -3 1 -2 1 0 -3 -3 -0 -1 -1 -3 -3 -1 1 -0 2 -3 -2 2 1 2 -0 -1 1 -0 3 3 3
0 -2 -3 -6 -0 -0 3 -4 0 -7 4 -2 1 0 2 3 5 -2 2 -1 1 0 -3 -0 -1 -3 -1 -3 -1 -2 0 1 0 -0 1 1 0 -1 1 -1 -3 -2 -0 0 1
1 -1 -2 -6 0 5 -4 -1 -7 -8 0 -1 1 -0 3 4 2 -2 -0 -2 -1 -2 -3 1 0 -1 -5 -3 2 -2 -3 -3 -2 -0 1 2 4 1 3 4 -3 -1 1 -1 0
3 -0 -1 -4 6 -1 -4 1 -8 -8 -11 16 -1 7 1 7 5 -5 1 -1 -2 -2 -2 -1 0 -2 -6 -5 1 5 -5 -3 -1 1 -2 -1 -2 -0 2 -4 2 0 -3 -1 -3
6 0 -3 2 7 -1 -1 0 -6 -1 -24 -3 -3 8 4 6 14 7 -4 -1 -1 -2 -3 -5 1 -2 -0 -5 -6 3 3 0 -1 -1 1 0 1 -1 -1 1 1 3 2 -3 -1
6 5 -8 -3 7 -1 0 2 -7 -1 -15 -9 -2 1 1 3 4 4 1 -1 -1 -2 -1 -4 -0 1 -3 -3 -5 -2 3 3 2 0 -1 -0 0 3 3 -0 2 -1 -1 2 -1
2 6 -3 -7 22 -11 3 -5 -6 -32 -5 -4 1 3 -2 5 9 0 3 2 -2 -1 -2 -1 -1 1 0 -2 -2 -6 1 0 3 3 1 -2 -1 1 -4 -6 -2 -2 1 0 0
4 4 -0 -6 16 -11 2 -3 -28 1 14 -2 5 -1 -2 2 9 -2 15 1 -3 0 -4 -0 -1 2 -1 4 2 -6 -2 2 3 4 5 2 -2 12 0 -7 -4 -4 -0 -2 2
18 4 -4 3 16 -0 -1 -23 -15 10 15 0 2 -5 -6 -9 3 4 4 9 -3 1 -2 -0 -1 1 0 2 2 0 -2 2 -1 -0 2 0 1 6 -2 1 0 3 -2 -1 -2
6 15 8 12 14 3 -6 -31 -10 4 6 3 2 -0 2 0 1 -3 1 11 -1 2 -1 1 0 -2 0 -0 -2 -0 -1 -1 -2 -5 -3 0 2 8 -1 3 -1 0 3 3 1
4 1 24 14 23 7 -66 -16 -0 2 6 -2 -0 0 9 -11 8 1 11 9 -1 -0 -2 2 2 -1 1 -0 1 -3 -2 -1 -4 -3 -2 -1 3 5 -2 -1 1 1 -0 1 1
-4 -32 24 32 11 -20 -38 -6 -0 7 7 -6 -2 8 5 -4 -0 1 5 4 1 2 -2 4 1 2 3 -2 -1 -6 -4 -1 -4 4 -1 -1 9 -3 3 -2 -0 1 1 1 -0
-19 12 5 44 -21 -24 -4 -7 5 1 4 -0 7 6 3 -0 -1 4 7 4 0 -3 2 3 -4 0 2 -5 -1 -2 4 -1 -0 -1 2 -1 8 -1 1 1 -2 -2 -2 0 3
-2 14 3 -26 5 15 26 3 -1 7 -0 2 3 3 -2 3 -3 4 6 3 1 -1 -1 -1 -0 2 -3 18 9 -7 3 1 -5 -6 4 5 4 3 -0 -1 0 -3 -3 1 -2
-3 -18 -22 -46 -28 -17 -18 13 16 -2 2 -0 -2 -5 3 -2 -2 4 3 2 1 1 -2 -3 -1 1 5 5 -2 1 -4 -5 -5 1 -8 10 1 3 0 2 -1 -3 -5 -3 -3
-20 -16 -19 -23 5 23 3 -13 5 13 -11 0 4 15 6 4 7 4 1 5 0 1 -2 -3 -4 1 4 1 1 -5 -8 -3 -3 -1 -1 -2 -1 0 -2 1 -1 0 -3 -2 -2
-9 -1 -5 -4 3 -4 -30 24 20 15 -1 2 13 12 -4 13 12 3 -2 2 1 -1 -4 -3 -5 3 0 2 4 -23 10 -2 2 -1 1 -1 11 3 4 1 -2 -0 0 0 -2
Height
5816 5817 5819 5820 5820 5821 5822 5822 5823 5823 5821 5820 5818 5817 5815 5812 5810 5804 5800 5795 5790 5784 5780 5775 5769 5764 5761 5760 5759 5759 5761 5763 5765 5767 5769 5772 5774 5774 5775 5777 5779 5780 5783 5785 5785
5808 5809 5811 5812 5814 5815 5816 5816 5817 5817 5817 5815 5813 5812 5810 5808 5806 5801 5797 5792 5788 5782 5777 5773 5767 5763 5761 5760 5759 5759 5761 5763 5765 5766 5768 5770 5772 5773 5773 5775 5776 5777 5780 5782 5782
5800 5801 5804 5805 5806 5808 5809 5810 5811 5811 5811 5811 5809 5807 5805 5804 5803 5798 5794 5790 5785 5780 5775 5771 5767 5763 5760 5759 5759 5759 5763 5764 5765 5767 5768 5770 5772 5772 5769 5772 5774 5773 5775 5777 5777
5791 5794 5795 5797 5799 5800 5802 5804 5804 5805 5805 5805 5804 5803 5801 5800 5799 5794 5791 5787 5783 5778 5774 5770 5766 5763 5760 5759 5760 5762 5764 5765 5767 5769 5770 5770 5771 5771 5769 5770 5770 5768 5769 5770 5770
5781 5784 5787 5789 5791 5793 5794 5795 5798 5799 5800 5800 5799 5797 5797 5796 5794 5791 5788 5784 5780 5776 5772 5768 5765 5763 5761 5760 5761 5763 5764 5766 5768 5769 5770 5770 5769 5769 5768 5766 5766 5763 5764 5762 5764
5770 5774 5776 5779 5783 5785 5786 5787 5789 5792 5793 5794 5793 5792 5793 5792 5790 5787 5785 5782 5778 5774 5770 5766 5764 5762 5762 5761 5763 5764 5764 5766 5767 5769 5770 5769 5768 5768 5766 5763 5763 5761 5759 5758 5758
5760 5763 5766 5769 5772 5775 5778 5780 5782 5784 5786 5787 5787 5787 5787 5787 5786 5783 5781 5779 5775 5772 5768 5765 5763 5761 5761 5761 5763 5764 5765 5764 5766 5767 5768 5768 5766 5766 5765 5763 5762 5760 5758 5757 5756
5749 5753 5755 5759 5762 5765 5768 5769 5773 5776 5779 5781 5782 5781 5782 5781 5781 5780 5778 5775 5772 5770 5766 5763 5761 5760 5760 5760 5762 5764 5763 5763 5765 5765 5766 5768 5767 5766 5766 5763 5762 5760 5762 5761 5763
5738 5741 5745 5749 5753 5756 5759 5761 5764 5767 5771 5775 5775 5775 5776 5777 5777 5776 5774 5772 5769 5767 5764 5762 5760 5760 5760 5759 5761 5762 5764 5766 5766 5767 5767 5768 5768 5768 5767 5767 5766 5765 5765 5766 5767
5725 5729 5733 5739 5743 5748 5749 5753 5756 5760 5763 5764 5767 5770 5771 5771 5772 5772 5771 5769 5767 5765 5762 5760 5758 5759 5759 5758 5759 5761 5763 5765 5766 5768 5767 5768 5769 5768 5768 5768 5769 5768 5768 5769 5770
5714 5718 5722 5726 5732 5736 5741 5743 5748 5751 5755 5757 5758 5761 5764 5764 5767 5768 5767 5766 5764 5763 5760 5758 5758 5757 5758 5757 5758 5761 5764 5765 5767 5767 5767 5768 5769 5769 5768 5768 5768 5770 5770 5771 5772
5700 5704 5711 5715 5720 5725 5729 5733 5736 5741 5746 5748 5749 5754 5756 5758 5760 5763 5763 5763 5761 5760 5757 5756 5756 5755 5756 5757 5759 5761 5762 5764 5764 5767 5768 5768 5768 5770 5769 5768 5767 5768 5769 5771 5773
5686 5691 5696 5703 5708 5715 5718 5720 5728 5730 5734 5741 5741 5746 5748 5752 5754 5757 5758 5758 5757 5756 5754 5754 5755 5755 5756 5757 5758 5760 5760 5762 5763 5765 5766 5768 5768 5769 5770 5770 5769 5769 5769 5770 5772
5672 5676 5682 5691 5698 5702 5708 5713 5717 5721 5726 5734 5734 5738 5738 5745 5747 5750 5753 5754 5753 5753 5751 5753 5753 5753 5755 5755 5756 5759 5761 5761 5762 5764 5766 5767 5769 5768 5769 5770 5771 5770 5770 5769 5770
5657 5663 5668 5676 5685 5689 5696 5702 5706 5713 5718 5724 5726 5727 5732 5738 5743 5745 5746 5746 5748 5749 5749 5750 5751 5751 5754 5754 5753 5756 5758 5759 5760 5762 5764 5766 5768 5767 5768 5769 5770 5770 5770 5769 5769
5641 5647 5652 5664 5672 5678 5682 5689 5697 5704 5709 5713 5718 5720 5725 5731 5735 5736 5740 5742 5743 5745 5744 5746 5748 5750 5752 5753 5753 5753 5756 5758 5759 5760 5762 5763 5765 5766 5767 5768 5768 5768 5768 5768 5768
5623 5632 5639 5649 5663 5663 5669 5676 5684 5692 5701 5707 5711 5714 5717 5723 5727 5729 5734 5737 5738 5740 5741 5741 5744 5746 5749 5751 5752 5752 5754 5756 5758 5758 5760 5760 5762 5764 5764 5764 5765 5765 5765 5765 5765
5599 5613 5622 5637 5645 5647 5655 5663 5670 5687 5690 5695 5703 5705 5711 5715 5717 5721 5726 5730 5732 5735 5735 5736 5740 5742 5745 5748 5749 5750 5752 5753 5754 5756 5757 5757 5759 5762 5760 5758 5758 5760 5762 5763 5764
5573 5587 5603 5621 5629 5631 5639 5646 5667 5674 5680 5686 5691 5695 5701 5705 5710 5715 5719 5726 5728 5730 5731 5731 5734 5737 5740 5743 5745 5746 5748 5750 5751 5752 5753 5754 5755 5756 5755 5755 5755 5755 5757 5758 5759
5548 5566 5586 5601 5609 5614 5621 5640 5655 5664 5670 5678 5681 5687 5694 5700 5704 5708 5713 5720 5724 5725 5725 5727 5729 5732 5735 5737 5739 5741 5744 5746 5746 5747 5748 5749 5751 5752 5750 5751 5752 5752 5752 5754 5755
5534 5542 5569 5580 5585 5589 5603 5635 5644 5650 5659 5666 5672 5678 5686 5691 5698 5702 5709 5714 5717 5718 5719 5721 5724 5728 5730 5732 5734 5736 5738 5740 5742 5743 5743 5743 5745 5747 5746 5745 5746 5747 5747 5748 5749
5515 5531 5550 5555 5555 5572 5601 5627 5634 5639 5649 5657 5662 5668 5675 5682 5690 5695 5699 5707 5710 5712 5713 5716 5718 5721 5726 5727 5729 5731 5734 5735 5737 5740 5738 5739 5741 5739 5740 5740 5741 5741 5742 5742 5742
5498 5522 5526 5536 5540 5560 5601 5608 5618 5627 5640 5647 5653 5659 5665 5673 5682 5687 5693 5699 5702 5705 5708 5710 5711 5715 5718 5721 5723 5726 5729 5731 5733 5733 5733 5734 5738 5735 5735 5735 5735 5735 5735 5737 5738
5483 5493 5503 5518 5545 5567 5573 5591 5605 5615 5628 5635 5644 5650 5657 5664 5671 5680 5688 5692 5696 5700 5702 5703 5706 5708 5713 5719 5720 5721 5724 5725 5726 5727 5727 5729 5732 5731 5729 5729 5730 5729 5729 5731 5731
5466 5474 5490 5509 5525 5549 5563 5581 5593 5604 5618 5625 5634 5640 5648 5656 5663 5673 5681 5686 5689 5693 5695 5696 5700 5703 5708 5711 5711 5713 5716 5717 5719 5721 5720 5723 5722 5726 5725 5723 5723 5722 5722 5724 5724
5454 5470 5481 5505 5532 5542 5543 5559 5579 5594 5609 5619 5626 5636 5641 5649 5658 5667 5673 5679 5682 5686 5687 5691 5696 5699 5702 5704 5705 5706 5709 5712 5713 5714 5715 5715 5715 5718 5717 5717 5717 5716 5715 5716 5717
5451 5464 5472 5495 5510 5523 5537 5554 5567 5582 5598 5610 5619 5626 5632 5645 5653 5659 5665 5671 5674 5678 5681 5685 5689 5693 5695 5698 5699 5701 5705 5706 5708 5708 5709 5708 5710 5710 5711 5710 5709 5708 5708 5707 5708